Check out our new BloomSky Weather System.

Active alerts


No alerts


Thunder radar  blitzortung!


Rain radar more information rain snow radar


Visit our other weather sites:

Template documentation
and downloads

And another site



Weather Underground History page Text

Daily Summary for January 15, 2017 Units:  Metric    English   Both
« Previous Day
Next Day »
Daily Weekly Monthly Yearly Custom
  High: Low: Average:
Temperature: 24.2 °C 16.7 °C 20.2 °C
Dew Point: 21.2 °C 16.2 °C 18.8 °C
Humidity: 98 % 73 % 92 %
Wind Speed: 29 km/h 0 km/h 6.9 km/h
Wind Gust: 30.6 km/h - -
Wind:- - ESE
Pressure: 1023.6 hPa 1013.8 hPa -
Precipitation: 0.51 mm    
Historical Graphs
 
 
Tabular Data for January 15, 2017
Time Temperature Dew Point Pressure Wind Wind Speed Wind Gust Humidity Rainfall Rate (Hourly)
00:02 16.7 °C 16.2 °C 1023.6 hPa Calm   3.2 km/h 97 % 0 mm
00:07 16.7 °C 16.2 °C 1023.2 hPa Calm   1.6 km/h 97 % 0 mm
00:12 16.8 °C 16.3 °C 1023.2 hPa Calm   1.6 km/h 97 % 0 mm
00:17 16.8 °C 16.3 °C 1023.2 hPa Calm   1.6 km/h 97 % 0 mm
00:22 17 °C 16.7 °C 1023.2 hPa East 1.6 km/h 1.6 km/h 98 % 0 mm
00:27 17.1 °C 16.8 °C 1023.2 hPa ENE 1.6 km/h 3.2 km/h 98 % 0 mm
00:32 17.2 °C 16.9 °C 1022.9 hPa Calm   3.2 km/h 98 % 0 mm
00:38 17.3 °C 17 °C 1022.9 hPa ENE 1.6 km/h 3.2 km/h 98 % 0 mm
00:43 17.4 °C 17.1 °C 1022.9 hPa Calm   4.8 km/h 98 % 0 mm
00:48 17.4 °C 17.1 °C 1022.9 hPa Calm   4.8 km/h 98 % 0 mm
00:53 17.4 °C 17.1 °C 1022.9 hPa ESE 3.2 km/h 9.7 km/h 98 % 0 mm
00:58 17.4 °C 17.1 °C 1022.9 hPa Calm   9.7 km/h 98 % 0 mm
01:03 17.4 °C 17.1 °C 1022.9 hPa ENE 6.4 km/h 9.7 km/h 98 % 0 mm
01:08 17.5 °C 17.2 °C 1022.9 hPa ESE 1.6 km/h 8 km/h 98 % 0 mm
01:13 17.5 °C 17.2 °C 1022.9 hPa SE 1.6 km/h 8 km/h 98 % 0 mm
01:18 17.6 °C 17.3 °C 1022.6 hPa ESE 1.6 km/h 8 km/h 98 % 0 mm
01:23 17.6 °C 17.3 °C 1022.6 hPa East 1.6 km/h 8 km/h 98 % 0 mm
01:28 17.6 °C 17.3 °C 1022.6 hPa ESE 4.8 km/h 8 km/h 98 % 0 mm
01:33 17.7 °C 17.4 °C 1022.6 hPa SE 1.6 km/h 9.7 km/h 98 % 0 mm
01:38 17.7 °C 17.4 °C 1022.6 hPa SE 1.6 km/h 9.7 km/h 98 % 0 mm
01:43 17.7 °C 17.4 °C 1022.6 hPa ENE 3.2 km/h 9.7 km/h 98 % 0 mm
01:48 17.7 °C 17.4 °C 1022.6 hPa East 3.2 km/h 6.4 km/h 98 % 0 mm
01:53 17.7 °C 17.4 °C 1022.2 hPa Calm   6.4 km/h 98 % 0 mm
01:58 17.7 °C 17.4 °C 1022.2 hPa Calm   6.4 km/h 98 % 0 mm
02:03 17.7 °C 17.4 °C 1022.2 hPa East 3.2 km/h 6.4 km/h 98 % 0 mm
02:08 17.7 °C 17.4 °C 1022.2 hPa ESE 1.6 km/h 6.4 km/h 98 % 0 mm
02:13 17.7 °C 17.4 °C 1022.2 hPa ESE 1.6 km/h 6.4 km/h 98 % 0 mm
02:18 17.7 °C 17.4 °C 1021.9 hPa East 1.6 km/h 4.8 km/h 98 % 0 mm
02:23 17.7 °C 17.4 °C 1021.9 hPa Calm   4.8 km/h 98 % 0 mm
02:28 17.7 °C 17.4 °C 1021.9 hPa Calm   4.8 km/h 98 % 0 mm
02:33 17.7 °C 17.4 °C 1021.9 hPa East 3.2 km/h 4.8 km/h 98 % 0 mm
02:38 17.7 °C 17.4 °C 1021.9 hPa Calm   4.8 km/h 98 % 0 mm
02:43 17.7 °C 17.4 °C 1021.6 hPa SE 3.2 km/h 3.2 km/h 98 % 0 mm
02:48 17.7 °C 17.4 °C 1021.6 hPa ENE 3.2 km/h 4.8 km/h 98 % 0 mm
02:53 17.7 °C 17.4 °C 1021.6 hPa ESE 1.6 km/h 4.8 km/h 98 % 0 mm
02:58 17.7 °C 17.4 °C 1021.6 hPa Calm   4.8 km/h 98 % 0 mm
03:03 17.8 °C 17.5 °C 1021.6 hPa East 3.2 km/h 4.8 km/h 98 % 0 mm
03:08 17.8 °C 17.5 °C 1021.6 hPa East 3.2 km/h 6.4 km/h 98 % 0 mm
03:13 17.8 °C 17.5 °C 1021.6 hPa ESE 1.6 km/h 6.4 km/h 98 % 0 mm
03:18 17.8 °C 17.5 °C 1021.6 hPa ENE 3.2 km/h 8 km/h 98 % 0 mm
03:24 17.8 °C 17.5 °C 1021.6 hPa East 1.6 km/h 8 km/h 98 % 0 mm
03:29 17.8 °C 17.5 °C 1021.6 hPa Calm   8 km/h 98 % 0 mm
03:34 17.8 °C 17.5 °C 1021.6 hPa Calm   4.8 km/h 98 % 0 mm
03:39 17.8 °C 17.5 °C 1021.2 hPa Calm   4.8 km/h 98 % 0 mm
03:44 17.8 °C 17.5 °C 1021.2 hPa NE 1.6 km/h 3.2 km/h 98 % 0 mm
03:49 17.8 °C 17.5 °C 1021.2 hPa Calm   3.2 km/h 98 % 0 mm
03:54 17.8 °C 17.5 °C 1021.2 hPa Calm   6.4 km/h 98 % 0 mm
03:59 17.8 °C 17.5 °C 1021.2 hPa East 1.6 km/h 6.4 km/h 98 % 0 mm
04:04 17.8 °C 17.5 °C 1021.2 hPa East 1.6 km/h 6.4 km/h 98 % 0 mm
04:09 17.8 °C 17.5 °C 1021.2 hPa Calm   6.4 km/h 98 % 0 mm
04:14 17.8 °C 17.5 °C 1021.2 hPa Calm   6.4 km/h 98 % 0 mm
04:19 17.8 °C 17.5 °C 1021.2 hPa Calm   6.4 km/h 98 % 0 mm
04:24 17.8 °C 17.5 °C 1021.2 hPa ESE 8 km/h 8 km/h 98 % 0 mm
04:29 17.8 °C 17.5 °C 1020.9 hPa Calm   8 km/h 98 % 0 mm
04:34 17.8 °C 17.5 °C 1020.9 hPa ESE 1.6 km/h 8 km/h 98 % 0 mm
04:39 17.8 °C 17.5 °C 1020.9 hPa ESE 1.6 km/h 8 km/h 98 % 0 mm
04:44 17.8 °C 17.5 °C 1020.9 hPa NNE 1.6 km/h 6.4 km/h 98 % 0 mm
04:49 17.8 °C 17.5 °C 1020.9 hPa Calm   6.4 km/h 98 % 0 mm
04:54 17.8 °C 17.5 °C 1020.9 hPa NNW 1.6 km/h 8 km/h 98 % 0 mm
04:59 17.8 °C 17.5 °C 1020.5 hPa East 1.6 km/h 8 km/h 98 % 0 mm
05:04 17.8 °C 17.3 °C 1020.5 hPa NNW 1.6 km/h 8 km/h 97 % 0 mm
05:09 17.8 °C 17.3 °C 1020.5 hPa ENE 3.2 km/h 8 km/h 97 % 0 mm
05:14 17.8 °C 17.3 °C 1020.5 hPa ESE 1.6 km/h 8 km/h 97 % 0 mm
05:19 17.9 °C 17.4 °C 1020.5 hPa ENE 1.6 km/h 8 km/h 97 % 0 mm
05:24 17.9 °C 17.4 °C 1020.5 hPa NE 1.6 km/h 8 km/h 97 % 0 mm
05:29 17.9 °C 17.4 °C 1020.5 hPa East 1.6 km/h 6.4 km/h 97 % 0 mm
05:34 17.9 °C 17.4 °C 1020.5 hPa East 4.8 km/h 6.4 km/h 97 % 0 mm
05:39 17.9 °C 17.4 °C 1020.5 hPa Calm   6.4 km/h 97 % 0 mm
05:44 17.9 °C 17.4 °C 1020.5 hPa Calm   6.4 km/h 97 % 0 mm
05:49 17.9 °C 17.4 °C 1020.2 hPa ENE 1.6 km/h 6.4 km/h 97 % 0 mm
05:54 17.9 °C 17.4 °C 1020.2 hPa ENE 1.6 km/h 8 km/h 97 % 0 mm
05:59 18 °C 17.5 °C 1020.2 hPa East 3.2 km/h 11.3 km/h 97 % 0 mm
06:04 18 °C 17.5 °C 1020.2 hPa Calm   11.3 km/h 97 % 0 mm
06:09 18.1 °C 17.6 °C 1020.2 hPa East 3.2 km/h 11.3 km/h 97 % 0 mm
06:14 18.1 °C 17.6 °C 1019.9 hPa SE 1.6 km/h 6.4 km/h 97 % 0 mm
06:19 18.1 °C 17.6 °C 1020.2 hPa East 1.6 km/h 8 km/h 97 % 0 mm
06:24 18.1 °C 17.6 °C 1020.2 hPa Calm   9.7 km/h 97 % 0 mm
06:29 18.2 °C 17.7 °C 1020.2 hPa East 4.8 km/h 9.7 km/h 97 % 0 mm
06:34 18.2 °C 17.7 °C 1020.2 hPa SE 8 km/h 9.7 km/h 97 % 0 mm
06:39 18.2 °C 17.7 °C 1020.2 hPa SE 1.6 km/h 9.7 km/h 97 % 0 mm
06:44 18.2 °C 17.7 °C 1020.2 hPa ESE 1.6 km/h 9.7 km/h 97 % 0 mm
06:49 18.2 °C 17.7 °C 1020.2 hPa ESE 1.6 km/h 9.7 km/h 97 % 0 mm
06:54 18.3 °C 17.8 °C 1020.2 hPa ESE 4.8 km/h 9.7 km/h 97 % 0 mm
06:59 18.2 °C 17.7 °C 1020.2 hPa ESE 1.6 km/h 9.7 km/h 97 % 0 mm
07:04 18.2 °C 17.7 °C 1019.9 hPa East 1.6 km/h 9.7 km/h 97 % 0 mm
07:09 18.3 °C 17.8 °C 1020.2 hPa ESE 4.8 km/h 9.7 km/h 97 % 0 mm
07:15 18.3 °C 17.8 °C 1020.2 hPa ESE 1.6 km/h 9.7 km/h 97 % 0 mm
07:20 18.3 °C 17.8 °C 1020.2 hPa ESE 6.4 km/h 6.4 km/h 97 % 0 mm
07:25 18.3 °C 17.8 °C 1020.2 hPa East 4.8 km/h 8 km/h 97 % 0 mm
07:30 18.3 °C 17.8 °C 1020.2 hPa Calm   8 km/h 97 % 0 mm
07:35 18.3 °C 17.8 °C 1020.5 hPa ENE 3.2 km/h 8 km/h 97 % 0 mm
07:40 18.4 °C 17.9 °C 1020.5 hPa Calm   8 km/h 97 % 0 mm
07:45 18.4 °C 17.9 °C 1020.5 hPa East 1.6 km/h 8 km/h 97 % 0 mm
07:50 18.4 °C 17.9 °C 1020.5 hPa SE 1.6 km/h 8 km/h 97 % 0 mm
07:55 18.5 °C 18 °C 1020.5 hPa East 3.2 km/h 8 km/h 97 % 0 mm
08:00 18.6 °C 18.1 °C 1020.5 hPa East 3.2 km/h 8 km/h 97 % 0 mm
08:05 18.6 °C 18.1 °C 1020.5 hPa Calm   8 km/h 97 % 0 mm
08:10 18.7 °C 18.2 °C 1020.5 hPa ESE 1.6 km/h 6.4 km/h 97 % 0 mm
08:15 18.8 °C 18.3 °C 1020.5 hPa East 3.2 km/h 6.4 km/h 97 % 0 mm
08:20 18.9 °C 18.4 °C 1020.5 hPa East 1.6 km/h 6.4 km/h 97 % 0 mm
08:25 18.9 °C 18.6 °C 1020.5 hPa ESE 6.4 km/h 6.4 km/h 98 % 0 mm
08:30 19.1 °C 18.8 °C 1020.5 hPa SE 3.2 km/h 12.9 km/h 98 % 0 mm
08:35 19.3 °C 19 °C 1020.5 hPa ESE 4.8 km/h 12.9 km/h 98 % 0 mm
08:40 19.4 °C 19.1 °C 1020.5 hPa ESE 4.8 km/h 12.9 km/h 98 % 0 mm
08:45 19.5 °C 19.2 °C 1020.5 hPa ESE 3.2 km/h 9.7 km/h 98 % 0 mm
08:50 19.6 °C 19.3 °C 1020.5 hPa South 8 km/h 8 km/h 98 % 0 mm
08:55 19.7 °C 19.4 °C 1020.5 hPa SE 1.6 km/h 8 km/h 98 % 0 mm
09:00 19.8 °C 19.3 °C 1020.5 hPa SE 3.2 km/h 11.3 km/h 97 % 0 mm
09:05 19.8 °C 19.3 °C 1020.5 hPa East 14.5 km/h 14.5 km/h 97 % 0 mm
09:10 19.9 °C 19.4 °C 1020.5 hPa ESE 4.8 km/h 14.5 km/h 97 % 0 mm
09:15 20 °C 19.5 °C 1020.9 hPa ESE 4.8 km/h 14.5 km/h 97 % 0 mm
09:20 20.1 °C 19.6 °C 1020.9 hPa ESE 6.4 km/h 14.5 km/h 97 % 0 mm
09:25 20.1 °C 19.6 °C 1020.9 hPa East 11.3 km/h 14.5 km/h 97 % 0 mm
09:30 20.2 °C 19.7 °C 1020.9 hPa East 4.8 km/h 14.5 km/h 97 % 0 mm
09:35 20.2 °C 19.7 °C 1020.9 hPa ESE 11.3 km/h 14.5 km/h 97 % 0 mm
09:40 20.3 °C 19.8 °C 1020.9 hPa East 3.2 km/h 14.5 km/h 97 % 0 mm
09:45 20.4 °C 19.7 °C 1020.9 hPa SE 11.3 km/h 14.5 km/h 96 % 0 mm
09:50 20.6 °C 19.9 °C 1020.9 hPa ESE 8 km/h 14.5 km/h 96 % 0 mm
09:55 20.6 °C 19.9 °C 1020.9 hPa SSE 4.8 km/h 14.5 km/h 96 % 0 mm
10:00 20.7 °C 20 °C 1020.9 hPa SE 4.8 km/h 14.5 km/h 96 % 0 mm
10:05 20.9 °C 20.1 °C 1020.9 hPa SE 4.8 km/h 12.9 km/h 95 % 0 mm
10:10 20.9 °C 20.1 °C 1020.9 hPa SSE 4.8 km/h 11.3 km/h 95 % 0 mm
10:15 21.1 °C 20.3 °C 1020.9 hPa ESE 11.3 km/h 11.3 km/h 95 % 0 mm
10:20 21.2 °C 20.2 °C 1020.9 hPa SE 9.7 km/h 12.9 km/h 94 % 0 mm
10:25 21.3 °C 20.3 °C 1020.9 hPa SE 8 km/h 16.1 km/h 94 % 0 mm
10:30 21.3 °C 20.1 °C 1020.9 hPa SE 6.4 km/h 16.1 km/h 93 % 0 mm
10:35 21.3 °C 20.1 °C 1020.9 hPa East 9.7 km/h 16.1 km/h 93 % 0 mm
10:40 21.3 °C 20.1 °C 1020.5 hPa ESE 8 km/h 14.5 km/h 93 % 0 mm
10:45 21.4 °C 20.2 °C 1020.5 hPa SSE 6.4 km/h 14.5 km/h 93 % 0 mm
10:50 21.5 °C 20.3 °C 1020.5 hPa East 4.8 km/h 14.5 km/h 93 % 0 mm
10:55 21.6 °C 20.2 °C 1020.2 hPa ESE 12.9 km/h 17.7 km/h 92 % 0 mm
11:00 21.7 °C 20.2 °C 1020.2 hPa SE 8 km/h 24.1 km/h 91 % 0 mm
11:05 21.8 °C 20.3 °C 1020.2 hPa SE 9.7 km/h 24.1 km/h 91 % 0 mm
11:10 21.8 °C 20.3 °C 1019.9 hPa South 6.4 km/h 24.1 km/h 91 % 0 mm
11:15 21.9 °C 20.4 °C 1019.9 hPa SE 4.8 km/h 20.9 km/h 91 % 0 mm
11:20 21.9 °C 20.4 °C 1019.9 hPa SSE 8 km/h 19.3 km/h 91 % 0 mm
11:25 22 °C 20.6 °C 1019.9 hPa ESE 11.3 km/h 19.3 km/h 92 % 0 mm
11:30 22.1 °C 20.7 °C 1019.5 hPa SE 9.7 km/h 19.3 km/h 92 % 0 mm
11:36 22.1 °C 20.6 °C 1019.2 hPa SE 9.7 km/h 19.3 km/h 91 % 0 mm
11:41 22.2 °C 20.7 °C 1019.2 hPa SE 20.9 km/h 20.9 km/h 91 % 0 mm
11:46 22.2 °C 20.3 °C 1019.2 hPa ESE 11.3 km/h 27.4 km/h 89 % 0 mm
11:51 22.2 °C 20.3 °C 1018.8 hPa SE 16.1 km/h 27.4 km/h 89 % 0 mm
11:56 22.2 °C 20.3 °C 1018.8 hPa SE 8 km/h 27.4 km/h 89 % 0 mm
12:01 22.1 °C 20.2 °C 1018.8 hPa ESE 4.8 km/h 17.7 km/h 89 % 0 mm
12:06 22.1 °C 20.2 °C 1018.5 hPa ENE 4.8 km/h 17.7 km/h 89 % 0 mm
12:11 21.9 °C 20.4 °C 1018.5 hPa ESE 9.7 km/h 16.1 km/h 91 % 0.25 mm
12:16 21.9 °C 20.5 °C 1018.2 hPa East 9.7 km/h 17.7 km/h 92 % 0.51 mm
12:21 21.8 °C 20.4 °C 1017.8 hPa ESE 4.8 km/h 17.7 km/h 92 % 0.51 mm
12:26 21.8 °C 20.4 °C 1017.8 hPa ESE 6.4 km/h 19.3 km/h 92 % 0.51 mm
12:31 22.1 °C 20.6 °C 1017.8 hPa East 9.7 km/h 19.3 km/h 91 % 0.51 mm
12:36 22.2 °C 20.8 °C 1017.5 hPa SE 4.8 km/h 19.3 km/h 92 % 0.51 mm
12:41 22.2 °C 20.7 °C 1017.5 hPa East 8 km/h 17.7 km/h 91 % 0.51 mm
12:46 22.2 °C 20.7 °C 1017.2 hPa SSE 4.8 km/h 19.3 km/h 91 % 0.51 mm
12:51 22.3 °C 20.6 °C 1017.2 hPa SSE 11.3 km/h 19.3 km/h 90 % 0.51 mm
12:56 22.4 °C 20.9 °C 1016.8 hPa SE 11.3 km/h 20.9 km/h 91 % 0.51 mm
13:01 22.4 °C 20.9 °C 1016.8 hPa SSE 3.2 km/h 20.9 km/h 91 % 0.51 mm
13:06 22.5 °C 20.8 °C 1016.8 hPa SE 4.8 km/h 20.9 km/h 90 % 0.51 mm
13:11 22.6 °C 21.1 °C 1016.5 hPa NW 4.8 km/h 17.7 km/h 91 % 0.25 mm
13:16 22.7 °C 21.2 °C 1016.1 hPa ESE 9.7 km/h 17.7 km/h 91 % 0 mm
13:21 22.8 °C 20.9 °C 1016.1 hPa SE 4.8 km/h 19.3 km/h 89 % 0 mm
13:26 22.9 °C 20.8 °C 1015.8 hPa SE 9.7 km/h 19.3 km/h 88 % 0 mm
13:31 23.3 °C 21.2 °C 1015.8 hPa SSE 11.3 km/h 24.1 km/h 88 % 0 mm
13:36 23.5 °C 20.8 °C 1015.5 hPa SE 12.9 km/h 24.1 km/h 85 % 0 mm
13:41 23.4 °C 20.3 °C 1015.5 hPa ESE 16.1 km/h 29 km/h 83 % 0 mm
13:46 23.7 °C 20.4 °C 1015.5 hPa East 12.9 km/h 29 km/h 82 % 0 mm
13:51 23.8 °C 20.1 °C 1015.5 hPa SE 16.1 km/h 29 km/h 80 % 0 mm
13:56 23.9 °C 20 °C 1015.5 hPa East 9.7 km/h 25.7 km/h 79 % 0 mm
14:01 24.2 °C 19.9 °C 1015.5 hPa ESE 12.9 km/h 25.7 km/h 77 % 0 mm
14:06 24.1 °C 19.2 °C 1015.5 hPa SE 17.7 km/h 27.4 km/h 74 % 0 mm
14:11 24.1 °C 19.2 °C 1015.5 hPa SE 17.7 km/h 27.4 km/h 74 % 0 mm
14:16 24.1 °C 19 °C 1015.1 hPa SE 12.9 km/h 30.6 km/h 73 % 0 mm
14:21 24.1 °C 19.6 °C 1015.5 hPa SE 11.3 km/h 30.6 km/h 76 % 0 mm
14:26 24.1 °C 19.6 °C 1015.1 hPa ESE 17.7 km/h 30.6 km/h 76 % 0 mm
14:31 24 °C 19.5 °C 1015.1 hPa SE 14.5 km/h 20.9 km/h 76 % 0 mm
14:36 23.9 °C 19.4 °C 1015.1 hPa SSE 16.1 km/h 27.4 km/h 76 % 0 mm
14:41 23.9 °C 19.4 °C 1014.8 hPa SSE 12.9 km/h 27.4 km/h 76 % 0 mm
14:47 23.9 °C 19.6 °C 1014.8 hPa SE 14.5 km/h 27.4 km/h 77 % 0 mm
14:52 24 °C 19.5 °C 1014.8 hPa ESE 17.7 km/h 27.4 km/h 76 % 0 mm
14:57 23.8 °C 19.3 °C 1014.8 hPa SSE 14.5 km/h 24.1 km/h 76 % 0 mm
15:02 23.7 °C 19.2 °C 1014.8 hPa SE 20.9 km/h 24.1 km/h 76 % 0 mm
15:07 23.7 °C 19 °C 1014.8 hPa East 12.9 km/h 29 km/h 75 % 0 mm
15:12 23.8 °C 19.1 °C 1014.8 hPa ESE 12.9 km/h 29 km/h 75 % 0 mm
15:17 23.7 °C 19.2 °C 1014.8 hPa SE 8 km/h 29 km/h 76 % 0 mm
15:22 23.8 °C 19.5 °C 1014.8 hPa ESE 17.7 km/h 25.7 km/h 77 % 0 mm
15:27 23.7 °C 19.6 °C 1014.4 hPa SE 17.7 km/h 25.7 km/h 78 % 0 mm
15:32 23.5 °C 19.4 °C 1014.8 hPa ESE 16.1 km/h 25.7 km/h 78 % 0 mm
15:37 23.3 °C 19.2 °C 1014.8 hPa East 16.1 km/h 29 km/h 78 % 0 mm
15:42 23.2 °C 19.4 °C 1014.8 hPa SE 20.9 km/h 29 km/h 79 % 0 mm
15:47 23.2 °C 19.4 °C 1014.8 hPa East 11.3 km/h 29 km/h 79 % 0 mm
15:52 23.1 °C 19.5 °C 1014.8 hPa ESE 8 km/h 25.7 km/h 80 % 0 mm
15:57 23.1 °C 19.7 °C 1014.8 hPa SE 14.5 km/h 25.7 km/h 81 % 0 mm
16:02 23 °C 19.6 °C 1014.4 hPa ESE 9.7 km/h 25.7 km/h 81 % 0 mm
16:07 22.9 °C 19.5 °C 1014.8 hPa SSE 9.7 km/h 25.7 km/h 81 % 0 mm
16:12 22.9 °C 19.5 °C 1014.8 hPa SE 9.7 km/h 25.7 km/h 81 % 0 mm
16:17 22.8 °C 19.6 °C 1014.4 hPa SE 11.3 km/h 24.1 km/h 82 % 0 mm
16:22 22.7 °C 19.5 °C 1014.4 hPa SSE 9.7 km/h 24.1 km/h 82 % 0 mm
16:27 22.6 °C 19.6 °C 1014.4 hPa SSE 22.5 km/h 24.1 km/h 83 % 0 mm
16:32 22.6 °C 19.6 °C 1014.4 hPa SE 8 km/h 25.7 km/h 83 % 0 mm
16:37 22.5 °C 19.7 °C 1014.4 hPa East 9.7 km/h 25.7 km/h 84 % 0 mm
16:42 22.4 °C 19.6 °C 1014.4 hPa SSE 9.7 km/h 25.7 km/h 84 % 0 mm
16:47 22.3 °C 19.7 °C 1014.4 hPa East 29 km/h 29 km/h 85 % 0 mm
16:52 22.2 °C 19.6 °C 1014.4 hPa SSE 3.2 km/h 29 km/h 85 % 0 mm
16:57 22.1 °C 19.5 °C 1014.4 hPa ESE 14.5 km/h 29 km/h 85 % 0 mm
17:02 22 °C 19.5 °C 1014.4 hPa ESE 14.5 km/h 29 km/h 86 % 0 mm
17:07 21.9 °C 19.6 °C 1014.4 hPa SSE 8 km/h 22.5 km/h 87 % 0 mm
17:12 21.8 °C 19.5 °C 1014.1 hPa ESE 9.7 km/h 20.9 km/h 87 % 0 mm
17:17 21.8 °C 19.5 °C 1014.1 hPa East 4.8 km/h 20.9 km/h 87 % 0 mm
17:22 21.7 °C 19.6 °C 1014.1 hPa ESE 6.4 km/h 20.9 km/h 88 % 0 mm
17:27 21.6 °C 19.5 °C 1014.1 hPa SE 11.3 km/h 20.9 km/h 88 % 0 mm
17:32 21.4 °C 19.5 °C 1014.1 hPa SSW 9.7 km/h 24.1 km/h 89 % 0 mm
17:37 21.3 °C 19.4 °C 1013.8 hPa SSE 6.4 km/h 24.1 km/h 89 % 0 mm
17:42 21.2 °C 19.5 °C 1013.8 hPa East 12.9 km/h 24.1 km/h 90 % 0 mm
17:47 21.1 °C 19.4 °C 1013.8 hPa ESE 14.5 km/h 22.5 km/h 90 % 0 mm
17:52 21.1 °C 19.6 °C 1013.8 hPa SE 8 km/h 27.4 km/h 91 % 0 mm
17:57 21 °C 19.5 °C 1013.8 hPa South 6.4 km/h 27.4 km/h 91 % 0 mm
18:02 20.9 °C 19.4 °C 1013.8 hPa East 17.7 km/h 27.4 km/h 91 % 0 mm
18:07 20.9 °C 19.4 °C 1013.8 hPa SE 6.4 km/h 20.9 km/h 91 % 0 mm
18:12 20.9 °C 19.4 °C 1013.8 hPa SE 9.7 km/h 20.9 km/h 91 % 0 mm
18:17 20.9 °C 19.4 °C 1013.8 hPa ESE 8 km/h 20.9 km/h 91 % 0 mm
18:22 20.8 °C 19.5 °C 1013.8 hPa ESE 4.8 km/h 20.9 km/h 92 % 0 mm
18:27 20.7 °C 19.4 °C 1013.8 hPa East 14.5 km/h 20.9 km/h 92 % 0 mm
18:32 20.6 °C 19.4 °C 1013.8 hPa ENE 8 km/h 20.9 km/h 93 % 0 mm
18:37 20.6 °C 19.4 °C 1013.8 hPa East 17.7 km/h 20.9 km/h 93 % 0 mm
18:42 20.5 °C 19.3 °C 1013.8 hPa ESE 9.7 km/h 24.1 km/h 93 % 0 mm
18:47 20.5 °C 19.3 °C 1013.8 hPa SSE 8 km/h 24.1 km/h 93 % 0 mm
18:52 20.5 °C 19.3 °C 1013.8 hPa East 14.5 km/h 24.1 km/h 93 % 0 mm
18:57 20.6 °C 19.4 °C 1013.8 hPa ESE 11.3 km/h 22.5 km/h 93 % 0 mm
19:02 20.6 °C 19.4 °C 1013.8 hPa ESE 4.8 km/h 22.5 km/h 93 % 0 mm
19:07 20.6 °C 19.4 °C 1013.8 hPa SE 12.9 km/h 22.5 km/h 93 % 0 mm
19:12 20.6 °C 19.4 °C 1013.8 hPa East 8 km/h 22.5 km/h 93 % 0 mm
19:17 20.6 °C 19.3 °C 1013.8 hPa ESE 4.8 km/h 17.7 km/h 92 % 0 mm
19:22 20.6 °C 19.3 °C 1013.8 hPa SSE 9.7 km/h 17.7 km/h 92 % 0 mm
19:27 20.6 °C 19.3 °C 1013.8 hPa SE 6.4 km/h 17.7 km/h 92 % 0 mm
19:32 20.6 °C 19.3 °C 1013.8 hPa ESE 6.4 km/h 17.7 km/h 92 % 0 mm
19:37 20.6 °C 19.3 °C 1013.8 hPa ESE 9.7 km/h 17.7 km/h 92 % 0 mm
19:42 20.6 °C 19.3 °C 1013.8 hPa East 11.3 km/h 17.7 km/h 92 % 0 mm
19:47 20.6 °C 19.3 °C 1013.8 hPa SE 6.4 km/h 17.7 km/h 92 % 0 mm
19:52 20.6 °C 19.3 °C 1014.1 hPa SSE 8 km/h 16.1 km/h 92 % 0 mm
19:57 20.6 °C 19.3 °C 1014.1 hPa ENE 20.9 km/h 20.9 km/h 92 % 0 mm
20:02 20.7 °C 19.2 °C 1014.1 hPa SE 12.9 km/h 20.9 km/h 91 % 0 mm
20:07 20.7 °C 19.2 °C 1014.4 hPa SE 8 km/h 20.9 km/h 91 % 0 mm
20:12 20.7 °C 19.2 °C 1014.4 hPa ESE 17.7 km/h 20.9 km/h 91 % 0 mm
20:17 20.7 °C 19.2 °C 1014.4 hPa SSE 11.3 km/h 20.9 km/h 91 % 0 mm
20:22 20.7 °C 19.2 °C 1014.4 hPa SE 16.1 km/h 20.9 km/h 91 % 0 mm
20:27 20.7 °C 19.2 °C 1014.4 hPa SSE 4.8 km/h 20.9 km/h 91 % 0 mm
20:32 20.7 °C 19.2 °C 1014.4 hPa ESE 17.7 km/h 20.9 km/h 91 % 0 mm
20:37 20.7 °C 19.2 °C 1014.4 hPa SSE 14.5 km/h 22.5 km/h 91 % 0 mm
20:42 20.6 °C 19.1 °C 1014.4 hPa ESE 6.4 km/h 27.4 km/h 91 % 0 mm
20:47 20.6 °C 19.1 °C 1014.4 hPa SE 6.4 km/h 27.4 km/h 91 % 0 mm
20:52 20.6 °C 19.1 °C 1014.4 hPa East 12.9 km/h 27.4 km/h 91 % 0 mm
20:57 20.6 °C 19.1 °C 1014.4 hPa ESE 4.8 km/h 24.1 km/h 91 % 0 mm
21:02 20.5 °C 19 °C 1014.4 hPa SSE 9.7 km/h 24.1 km/h 91 % 0 mm
21:07 20.5 °C 19 °C 1014.4 hPa SE 6.4 km/h 24.1 km/h 91 % 0 mm
21:13 20.4 °C 18.9 °C 1014.4 hPa SE 8 km/h 17.7 km/h 91 % 0 mm
21:18 20.4 °C 18.9 °C 1014.4 hPa SE 6.4 km/h 22.5 km/h 91 % 0 mm
21:23 20.4 °C 18.9 °C 1014.4 hPa SSE 8 km/h 22.5 km/h 91 % 0 mm
21:28 20.4 °C 18.9 °C 1014.4 hPa ESE 11.3 km/h 22.5 km/h 91 % 0 mm
21:33 20.4 °C 18.9 °C 1014.4 hPa ESE 9.7 km/h 20.9 km/h 91 % 0 mm
21:38 20.4 °C 18.9 °C 1014.8 hPa East 3.2 km/h 20.9 km/h 91 % 0 mm
21:43 20.4 °C 18.9 °C 1014.8 hPa SE 6.4 km/h 20.9 km/h 91 % 0 mm
21:48 20.4 °C 18.9 °C 1014.8 hPa SE 6.4 km/h 19.3 km/h 91 % 0 mm
21:53 20.4 °C 19.1 °C 1014.8 hPa ESE 6.4 km/h 19.3 km/h 92 % 0 mm
21:58 20.4 °C 19.1 °C 1014.8 hPa ESE 3.2 km/h 17.7 km/h 92 % 0 mm
22:03 20.4 °C 19.1 °C 1014.8 hPa ESE 6.4 km/h 17.7 km/h 92 % 0 mm
22:08 20.4 °C 19.1 °C 1015.1 hPa SE 9.7 km/h 16.1 km/h 92 % 0 mm
22:13 20.4 °C 19.1 °C 1015.1 hPa SE 6.4 km/h 17.7 km/h 92 % 0 mm
22:18 20.3 °C 19 °C 1015.1 hPa SSE 6.4 km/h 17.7 km/h 92 % 0 mm
22:23 20.3 °C 19 °C 1014.8 hPa ESE 11.3 km/h 17.7 km/h 92 % 0 mm
22:28 20.3 °C 19 °C 1014.8 hPa SSE 1.6 km/h 16.1 km/h 92 % 0 mm
22:33 20.3 °C 19 °C 1014.8 hPa East 4.8 km/h 16.1 km/h 92 % 0 mm
22:38 20.2 °C 18.9 °C 1015.1 hPa SE 8 km/h 16.1 km/h 92 % 0 mm
22:43 20.2 °C 18.9 °C 1015.1 hPa ESE 8 km/h 14.5 km/h 92 % 0 mm
22:48 20.1 °C 18.8 °C 1015.1 hPa SSE 3.2 km/h 11.3 km/h 92 % 0 mm
22:53 20.1 °C 18.8 °C 1015.1 hPa ESE 6.4 km/h 11.3 km/h 92 % 0 mm
22:58 20.1 °C 18.8 °C 1014.8 hPa East 8 km/h 11.3 km/h 92 % 0 mm
23:03 20 °C 18.7 °C 1014.8 hPa ESE 6.4 km/h 14.5 km/h 92 % 0 mm
23:08 19.9 °C 18.7 °C 1014.8 hPa SE 4.8 km/h 14.5 km/h 93 % 0 mm
23:13 19.9 °C 18.7 °C 1014.8 hPa SSE 8 km/h 14.5 km/h 93 % 0 mm
23:18 19.9 °C 18.7 °C 1014.4 hPa SE 4.8 km/h 12.9 km/h 93 % 0 mm
23:23 19.9 °C 18.7 °C 1014.4 hPa ESE 8 km/h 12.9 km/h 93 % 0 mm
23:28 19.9 °C 18.7 °C 1014.4 hPa SE 9.7 km/h 16.1 km/h 93 % 0 mm
23:33 19.9 °C 18.7 °C 1014.4 hPa SE 6.4 km/h 16.1 km/h 93 % 0 mm
23:38 19.9 °C 18.7 °C 1014.1 hPa ESE 8 km/h 17.7 km/h 93 % 0 mm
23:43 19.9 °C 18.7 °C 1014.1 hPa SSE 8 km/h 17.7 km/h 93 % 0 mm
23:48 19.9 °C 18.7 °C 1014.1 hPa SE 8 km/h 17.7 km/h 93 % 0 mm
23:53 20 °C 18.8 °C 1013.8 hPa SE 9.7 km/h 17.7 km/h 93 % 0 mm
23:58 20.1 °C 18.9 °C 1013.8 hPa SE 9.7 km/h 19.3 km/h 93 % 0 mm
Spring, Texas: Villages of Bridgestone
Compliments of Weather Underground - 2.75 mb

Script developed by  Jim McMurry - jmcmurry@mwt.net Adapted for the template by  Wim van der Kuil - Leuven-Template.eu

You find our weather info also at:

UK Metoffice

WeatherCloud

Weather Underground

Mid-South Weather Network

AWEKAS

Citizen Weather Observer Program (CWOP)

HAMweather, WeatherForYou, PWS Weather

Equipment we use:

Weather-station
Davis Vantage Vue

Weather-program
Meteohub

Weather-server
Debian 7.9 x86 (Guest)

Provider
DreamHost

Davis Vantage Vue

Meteohub

Debian 7.9 x86 (Guest)

DreamHost